Tracking 30116 objects as of 10-Feb-2025
HD Live streaming from Space Station
objects crossing your sky now

BLUE RING PATHFINDER

Track BLUE RING PATHFINDER now!
10-day predictions


NORAD ID: 62720
Int'l Code: 2025-011A
Perigee: 2,430.8 km
Apogee: 19,260.0 km
Inclination: 30.0 °
Period: 374.7 minutes
Semi major axis: 17216 km
RCS: Unknown
Launch date: January 16, 2025
Source: United States (US)
Launch site: AIR FORCE EASTERN TEST RANGE (AFETR)
Your satellite tracking list
Your tracking list is empty




NASA's NSSDC Master Catalog

Two Line Element Set (TLE):
1 62720U 25011A   25040.28982629 -.00000096  00000-0  00000-0 0  9999
2 62720  30.0100  26.2481 4887562 284.2459  27.8577  3.84317135   922
Source of the keplerian elements: AFSPC